Weather in Nordenham

Germany     53°29′41″N   8°28′25″E
temp.,
°C
wind,
m/s
gust,
m/s
humid.,
%
clouds,
%
prec.,
mm/h
press.,
hPa
HPBL,
m
10 april, sat
sat1023:00+5wnw3492100 0.6 1013661
02:00+4n3483100 0.8 1013185
05:00+3n4578100 0.0 1014216
08:00+3nne3475100 0.0 1015246
11:00+5nne3358100 0.0 1016994
14:00+7nne3351100 0.0 10171183
17:00+7nne5554100 0.0 1016975
20:00+4ne4768100 0.1 1015254
11 april, sun
sun1123:00+3ne71086100 0.7 1015598
02:00+2ne71398100 3.1 1013511
05:00+1ne91499100 3.6 1011536
08:00+2ne81398100 5.4 1011536
11:00+2ne71098100 1.0 1011510
14:00+2nne71098100 2.4 1012487
17:00+1nne81299100 3.4 1012456
20:00+2n81298100 6.8 1012603
12 april, mon
mon1223:00+3n81298100 1.3 1015684
02:00+4n81189100 1.5 1016716
05:00+4nnw81181100 0.3 1018673
08:00+3nw71077100 0.3 1019633
11:00+5wnw7866100 0.0 10211509
14:00+6wnw8105778 0.1 10221831
17:00+6wnw910585 0.3 10221923
20:00+4w711705 0.3 1024724
13 april, tue
tue1323:00+1wsw510855 0.0 1025375
02:000wsw48915 0.0 1025239
05:000wsw59905 0.0 1025226
08:00+2wsw610815 0.0 1026297
11:00+7w78625 0.1 10261367
14:00+7nw89655 0.4 10271392
17:00+7nw89615 0.1 10271463
20:00+4wnw710745 0.1 1028571
14 april, wed
wed1423:00+2wnw58835 0.0 1029330
02:00+2wnw58815 0.0 1028326
05:00+2wnw598617 0.1 1028346
08:00+4wnw598191 0.2 1029659
11:00+6nw78686 0.4 10291135
14:00+7nw796181 0.4 10291255
17:00+6nw89665 0.0 10281237
20:00+5nnw710735 0.0 1028661